Location: L�Ave Maria
(50.7161°N, 1.5911°E)
Time: 13:06:02
(UTC+00:00)

ATLAS 2AS CENTAUR R/B - Pass Details

Date: 10 July 2020
Orbit: 930 x 1282 km, 63.7° (Epoch: 19 July)

Event Time Altitude Azimuth Distance (km) Brightness Sun altitude
Rises 22:28:13 0° 315° (NW) 4,169 7.1 -14.5°
Reaches altitude 10° 22:31:15 10° 309° (NW) 3,157 6.1 -14.7°
Maximum altitude 22:38:05 39° 244° (WSW) 1,657 3.6 -15.0°
Enters shadow 22:42:42 18° 186° (S) 2,399 4.0 -15.3°
